Flag for Ghana Weather past 2 weeks in Kumasi, Ghana

Now
75 °F

Passing clouds.


Feels Like: 75 °F
Forecast: 67 / 85 °F
Wind: 9 mph from Southwest

Location: Accra Airport

Current Time: Jul 30, 2015 at 8:18:18 AM

Latest Report: Jul 30, 2015 at 6:53 AM


Visibility: N/A

Pressure: 30.01 "Hg

Humidity: 83%

Dew point: 70 °F

Location of KumasiLocation

Historic Weather in Kumasi — Graph

°F

Kumasi temperature yesterday

Maximum temperature yesterday: 82 °F (at 3:00 PM)
Minimum temperature yesterday: 72 °F (at 1:54 AM)
Average temperature yesterday: 76 °F

Past Weeks' High & Low Weather Summary

 TemperatureHumidityPressure
High84 °F (Jul 22, 12:00 PM)100% (Jul 16, 2:00 AM)30.07 "Hg (Jul 16, 2:00 AM)
Low72 °F (Jul 29, 1:54 AM)62% (Jul 27, 12:00 PM)29.86 "Hg (Jul 15, 4:00 PM)
Average77 °F85%29.97 "Hg
* Reported Jul 15 6:00 AM — Jul 30 6:53 AM, Kumasi, Weather by CustomWeather, © 2015

Note: Actual official high and low records may vary slightly from our data, if they occured in-between our weather recording intervals... More about our weather records

Advertising

Kumasi weather history for previous 24 hours

 ConditionsComfort  
Time TempWeatherWind HumidityBarometerVisibility
6:53 AM
Thu, Jul 30
75 °FPassing clouds.9 mph83%30.01 "HgN/A
5:53 AM73 °FPassing clouds.7 mph89%29.98 "HgN/A
3:52 AM73 °FMild.8 mph89%29.98 "HgN/A
2:53 AM73 °FPartly cloudy.10 mph89%29.98 "HgN/A
1:53 AM73 °FPassing clouds.10 mph94%29.98 "HgN/A
12:54 AM73 °FPassing clouds.9 mph94%30.01 "HgN/A
11:55 PM
Wed, Jul 29
73 °FPassing clouds.9 mph94%30.01 "HgN/A
10:53 PM75 °FPassing clouds.12 mph89%30.04 "HgN/A
9:53 PM75 °FPassing clouds.13 mph89%30.04 "HgN/A
8:54 PM75 °FPassing clouds.13 mph89%30.01 "HgN/A
8:00 PM75 °FPassing clouds.13 mph89%29.98 "HgN/A
7:00 PM75 °FClear.15 mph89%29.95 "Hg10 mi
6:00 PM77 °FSunny.15 mph79%29.95 "Hg10 mi
4:50 PM79 °FSunny.16 mph74%29.92 "Hg10 mi
4:00 PM81 °FPassing clouds.17 mph66%29.92 "HgN/A
3:00 PM82 °FPassing clouds.16 mph62%29.95 "HgN/A
2:00 PM81 °FPassing clouds.16 mph70%29.98 "HgN/A
1:00 PM81 °FPassing clouds.16 mph84%30.01 "HgN/A
11:00 AM81 °FPartly sunny.10 mph70%30.04 "HgN/A
10:00 AM79 °FPartly sunny.12 mph74%30.07 "HgN/A
9:00 AM79 °FScattered clouds.13 mph74%30.04 "HgN/A
Weather by CustomWeather, © 2015

See weather overviewHow to use our weather pages